Regional Weather Roundup
Issued by NWS

Home | Current Version | Previous Version | Graphics & Text | Print | Product List | Glossary On
Versions: 1 2 3 4 5 6 7 8 9 10 11 12 13 14 15 16 17 18 19 20 21 22 23 24 25 26 27 28 29 30 31 32 33 34 35 36 37 38 39 40 41 42 43 44 45 46 47 48 49 50
000
ASUS45 KSLC 240310
RWRUT

UTAH REGIONAL WEATHER ROUNDUP
NATIONAL WEATHER SERVICE SALT LAKE CITY UT
900 PM MDT FRI JUN 23 2017

UTZ001>011-023>025-240400-

NORTHERN UTAH

CITY           SKY/WX    TMP DP  RH WIND       PRES   REMARKS
BRIGHAM CITY   CLEAR     78  34  20 CALM      30.13S
HILL AFB       CLEAR     76  38  25 W5        30.16R
LOGAN          CLEAR     71  51  49 N8        30.14R
OGDEN          CLEAR     74  42  31 W5        30.13R
SALT LAKE CITY CLEAR     77  35  21 W8        30.11R
TOOELE VALLEY  CLEAR     73  36  25 SW5       30.14S
WENDOVER         N/A     82  26  13 SE3       30.12
HEBER CITY     CLEAR     68  30  24 SE5       30.19R
WEST JORDAN    CLEAR     75  42  30 W5        30.15S

$$

UTZ011>015-024>027-240400-

CENTRAL/NORTHEAST UTAH

CITY           SKY/WX    TMP DP  RH WIND       PRES   REMARKS
PROVO AIRPORT  CLEAR     75  45  34 NW13      30.13R
MOAB/CANYONLAN CLEAR     88  16   7 NW14      29.98R
DELTA          CLEAR     79  18  10 NW8       30.12R
PRICE          CLEAR     77  27  15 NW18G26   30.16R
RICHFIELD      CLEAR     75  32  20 NW5       30.16R
ROOSEVELT      CLEAR     77  28  16 SW10      30.11R
VERNAL         CLEAR     78  25  14 NE10      30.10R

$$

UTZ013>016-019>022-027-240400-

SOUTHERN UTAH

CITY           SKY/WX    TMP DP  RH WIND       PRES   REMARKS
BRYCE CANYON   PTCLDY    70  15  12 NW9       30.31R
CEDAR CITY     CLEAR     82  23  11 N10       30.12R
MILFORD        CLEAR     82  21  10 N12       30.10R
ST GEORGE      CLEAR    103  31   8 W12       29.82R HX  96
HANKSVILLE     CLEAR     88  18   7 NW16G25   30.03R
KANAB          CLEAR     84  36  17 N7        30.07R
BLANDING       CLEAR     74  31  20 N8        30.18R

$$

REGIONAL REPORTS     COLORADO/ARIZONA

CITY           SKY/WX    TMP DP  RH WIND       PRES   REMARKS
CRAIG, CO      CLEAR     66  41  40 CALM      30.19R
GRAND JUNCTION CLEAR     81  10   7 NE9       30.02R
RIFLE, CO      CLEAR     79  24  13 NE6       30.11R
MONTROSE, CO   CLEAR     76  26  15 CALM      30.12R
CORTEZ, CO     CLEAR     70  36  28 CALM      30.12R
COLORADO CITY    N/A     90  32  12 W3        30.05R
PAGE, AZ       CLEAR     95  18   6 NW7       29.96R
GRAND CANYON   CLEAR     74  27  17 CALM      30.20R
KINGMAN, AZ    CLEAR     97  36  12 W8        29.91R HX  92
FLAGSTAFF, AZ  PTCLDY    80  27  14 SW7       30.22R

$$

REGIONAL REPORTS    NEVADA/IDAHO/WYOMING

CITY           SKY/WX    TMP DP  RH WIND       PRES   REMARKS
LAS VEGAS, NV  PTCLDY   109  20   4 SW6       29.76R HX 100
ELY, NY        CLEAR     78  24  13 N9        30.21R
ELKO, NV       CLEAR     79  28  15 NW13      30.17R
POCATELLO, ID  CLEAR     71  34  25 CALM      30.18R
BURLEY, ID     CLEAR     70  40  33 W6        30.15R
FORT BRIDGER,    N/A     67  26  21 NW9       30.32R
EVANSTON, WY   CLEAR     63  31  30 W8        30.31R
ROCK SPRINGS,  CLEAR     69  21  16 W15       30.23R
KEMMERER, WY     N/A     61  32  33 NW8       30.32R

$$



USA.gov is the U.S. government's official web portal to all federal, state and local government web resources and services.